Regional Weather Roundup
Issued by NWS

Home | Current Version | Previous Version | Graphics & Text | Print | Product List | Glossary On
Versions: 1 2 3 4 5 6 7 8 9 10 11 12 13 14 15 16 17 18 19 20 21 22 23 24 25 26 27 28 29 30 31 32 33 34 35 36 37 38 39 40 41 42 43 44 45 46 47 48 49 50
000
ASUS43 KBIS 302110
RWRND

NORTH DAKOTA REGIONAL WEATHER ROUNDUP
NATIONAL WEATHER SERVICE BISMARCK ND
400 PM CDT TUE SEP 30 2014

NOTE: "FAIR" INDICATES FEW OR NO CLOUDS BELOW 12,000 FEET WITH NO
SIGNIFICANT WEATHER AND/OR OBSTRUCTIONS TO VISIBILITY.


NDZ001>003-009>011-017-302200-
NORTHWEST NORTH DAKOTA

CITY           SKY/WX    TMP DP  RH WIND       PRES   REMARKS
WILLISTON      LGT RAIN  54  51  90 E7        29.56F
MINOT          LGT RAIN  50  48  93 E12       29.59F
MINOT AFB      LGT RAIN  50  50 100 E15       29.59F
$$

NDZ018>021-031>035-040>046-302200-
SOUTHWEST NORTH DAKOTA

CITY           SKY/WX    TMP DP  RH WIND       PRES   REMARKS
BISMARCK       CLOUDY    53  52  96 E21G29    29.50F
DICKINSON      CLOUDY    52  51  97 E14       29.48F FOG
GARRISON         N/A     52  50  93 E14G22    29.55F
HETTINGER ARPT LGT RAIN  56  53  90 NE10      29.45F
$$

NDZ004>008-012>016-024-026-027-054-302200-
NORTHEAST NORTH DAKOTA

CITY           SKY/WX    TMP DP  RH WIND       PRES   REMARKS
GRAND FORKS    PTSUNNY   61  45  55 SE17G24   29.72F
GRND FRKS AFB  PTSUNNY   60  47  61 SE13G20   29.72F
DEVILS LAKE    PTSUNNY   55  45  67 E17G24    29.64F
$$

NDZ022-023-025-028>030-036>039-047>053-302200-
SOUTHEAST NORTH DAKOTA

CITY           SKY/WX    TMP DP  RH WIND       PRES   REMARKS
FARGO          LGT RAIN  60  47  61 SE17G24   29.71F
JAMESTOWN      CLOUDY    52  48  86 SE17G32   29.61F
$$



USA.gov is the U.S. government's official web portal to all federal, state and local government web resources and services.